This is the latest recevied weather packets stored in our database for station/object NK7I. If no packets are shown the sender has not sent any weather packets the latest 1 day(s).
| Time | Temp. | Humidity | Pressure | Rain* | Wind** | Luminosity | Snow |
|---|---|---|---|---|---|---|---|
| 1778016382 | 21.11° C | 31% | 1011.8 hPa | 0 mm | 1.79 m/s, 49° | 1160 W/m² | - |
| 1778016082 | 21.11° C | 29% | 1011.9 hPa | 0 mm | 0.89 m/s, 48° | 1172 W/m² | - |
| 1778015782 | 21.11° C | 34% | 1012 hPa | 0 mm | 0.45 m/s, 55° | 1179 W/m² | - |
| 1778015483 | 21.11° C | 31% | 1012.1 hPa | 0 mm | 1.34 m/s, 43° | 1188 W/m² | - |
| 1778015183 | 21.11° C | 31% | 1012.3 hPa | 0 mm | 1.34 m/s, 39° | 1201 W/m² | - |
| 1778014883 | 21.11° C | 32% | 1012.2 hPa | 0 mm | 1.34 m/s, 56° | 1209 W/m² | - |
| 1778014582 | 21.11° C | 29% | 1012.2 hPa | 0 mm | 1.34 m/s, 55° | 1220 W/m² | - |
| 1778014283 | 21.11° C | 37% | 1012.3 hPa | 0 mm | 1.34 m/s, 37° | 1225 W/m² | - |
| 1778013983 | 21.11° C | 35% | 1012.4 hPa | 0 mm | 0.89 m/s, 47° | 1236 W/m² | - |
| 1778013682 | 21.11° C | 29% | 1012.5 hPa | 0 mm | 0.89 m/s, 25° | 1241 W/m² | - |
| 1778013383 | 21.11° C | 32% | 1012.5 hPa | 0 mm | 0.45 m/s, 3° | 1248 W/m² | - |
| 1778013083 | 21.11° C | 29% | 1012.5 hPa | 0 mm | 0.45 m/s, 356° | 1255 W/m² | - |
| 1778012783 | 20.56° C | 32% | 1012.6 hPa | 0 mm | 0.89 m/s, 14° | 1260 W/m² | - |
| 1778012483 | 20.56° C | 33% | 1012.7 hPa | 0 mm | 0.89 m/s, 59° | 1262 W/m² | - |
| 1778012183 | 20.56° C | 41% | 1012.7 hPa | 0 mm | 0.89 m/s, 6° | 1266 W/m² | - |
| 1778011883 | 20.56° C | 32% | 1012.7 hPa | 0 mm | 0.89 m/s, 269° | 1274 W/m² | - |
| 1778011583 | 20° C | 33% | 1013 hPa | 0 mm | 1.79 m/s, 52° | 1276 W/m² | - |
| 1778011283 | 20.56° C | 33% | 1012.8 hPa | 0 mm | 1.34 m/s, 49° | 1278 W/m² | - |
| 1778010984 | 20.56° C | 34% | 1012.7 hPa | 0 mm | 1.34 m/s, 48° | 1283 W/m² | - |
| 1778010683 | 20.56° C | 36% | 1012.8 hPa | 0 mm | 1.34 m/s, 52° | 1288 W/m² | - |
| 1778010383 | 21.11° C | 34% | 1012.8 hPa | 0 mm | 0.89 m/s, 60° | 1287 W/m² | - |
| 1778010083 | 21.11° C | 35% | 1012.8 hPa | 0 mm | 0.89 m/s, 35° | 1288 W/m² | - |
| 1778009783 | 21.11° C | 37% | 1012.8 hPa | 0 mm | 0.45 m/s, 357° | 1288 W/m² | - |
| 1778009483 | 20.56° C | 35% | 1012.8 hPa | 0 mm | 1.34 m/s, 324° | 1287 W/m² | - |
| 1778009183 | 20.56° C | 36% | 1012.8 hPa | 0 mm | 0.89 m/s, 283° | 1285 W/m² | - |
* Rain latest hour (hover to see other rain measurements)
** Current wind speed in m/s (hover to see current wind gust speed)